GFSFLT1_925_rhum_357.txt.gz
RH
94 94 85 85 83 86 86 88 90 92 99 94 85 88 87 83 93 90 81 91 93 95 94 89 89 94 93 93 88 88 86 84 89
95 85 81 86 89 88 88 92 98 99 96 86 86 85 82 96 98 97 97 93 95 95 94 91 95 95 94 93 92 92 90 96 95
87 81 78 87 92 94 95 96 91 86 86 88 90 90 88 88 90 97 97 92 92 96 96 89 91 95 95 92 93 93 93 97 96
87 87 85 84 82 80 77 86 91 84 86 83 84 87 87 91 93 90 92 92 96 96 95 94 90 93 92 90 89 92 89 94 89
89 88 91 91 89 96 86 73 82 84 76 82 86 88 90 94 93 89 87 91 92 93 94 92 95 94 85 86 86 88 89 88 72
88 97 99 99 98 97 99 83 70 74 80 79 82 82 91 95 96 92 83 90 96 94 94 91 91 86 86 86 84 88 83 78 73
98 97 96 94 97 100 85 87 85 80 89 87 77 77 86 91 92 96 86 90 93 90 80 83 87 88 79 80 87 88 77 76 75
94 94 97 100 100 97 100 100 98 97 96 94 90 88 81 89 96 98 95 95 91 89 76 85 85 87 88 93 83 73 70 65 65
94 99 100 99 97 95 94 95 98 99 100 100 99 99 99 100 100 99 93 89 93 85 93 83 84 87 92 95 75 73 69 69 73
99 97 96 95 92 88 91 99 99 98 99 99 98 99 99 100 99 100 96 89 87 86 82 86 90 88 94 92 80 77 76 73 78
86 91 94 93 90 90 99 99 99 97 97 97 100 100 99 100 100 100 98 97 99 99 95 92 91 94 92 93 81 81 85 85 86
85 88 93 92 94 96 97 94 90 91 94 95 98 96 97 97 99 100 97 96 93 92 90 88 100 96 82 82 92 93 94 96 95
92 92 94 95 95 92 89 89 91 92 92 95 96 97 97 98 97 97 97 96 92 96 100 100 96 93 99 98 96 99 98 99 98
89 91 93 93 90 89 88 90 86 86 88 91 92 90 91 94 97 92 94 98 94 90 84 87 99 100 100 98 98 98 98 99 100
87 89 90 90 88 89 89 85 85 83 84 83 83 81 83 83 89 97 97 99 98 95 89 89 94 100 99 98 100 99 98 99 99
90 89 91 91 89 89 88 83 78 74 71 71 64 62 66 72 76 83 100 98 99 99 100 99 94 96 99 100 98 99 100 99 100
91 88 91 92 90 90 86 80 73 67 68 66 64 62 58 53 57 68 80 95 97 97 100 100 100 100 99 96 97 98 100 97 94
92 89 90 92 90 88 83 76 69 68 68 70 70 78 75 54 47 47 58 76 92 100 100 100 100 99 98 97 98 99 99 98 94
93 90 88 90 91 87 82 75 69 68 67 60 61 62 60 60 55 50 42 46 70 88 99 100 100 97 95 97 98 98 98 98 96
94 92 90 90 92 87 83 76 70 68 68 61 48 49 50 47 53 50 54 40 38 53 85 95 97 99 96 94 98 99 98 98 97

GFSFLT1_925_rhum_360.txt.gz
RH
92 88 84 83 86 88 89 89 89 88 90 94 87 76 79 72 71 73 75 77 92 95 90 89 91 93 94 90 94 93 94 94 95
86 83 81 84 87 88 89 93 93 95 100 93 88 85 81 77 73 72 86 85 91 92 95 96 92 92 91 89 92 94 95 95 95
80 76 84 84 88 90 92 98 100 99 88 89 88 88 85 78 80 89 100 93 93 92 94 95 93 92 94 93 95 96 95 94 94
80 78 82 92 94 93 96 98 96 86 87 89 87 88 90 84 89 100 99 90 95 94 93 95 94 92 91 92 91 90 95 94 94
87 86 85 88 90 97 98 91 89 87 87 87 82 87 98 98 89 99 87 90 94 95 96 94 91 89 85 87 89 88 94 95 90
94 99 92 94 85 73 83 81 82 79 87 90 84 77 90 99 97 92 79 90 96 92 94 92 87 88 90 90 90 90 96 91 86
99 100 100 100 96 82 77 77 75 77 79 86 81 79 86 86 99 98 85 89 95 94 86 86 88 89 86 88 92 97 97 94 82
100 99 100 99 84 86 87 89 83 82 80 83 86 82 74 80 90 87 81 85 92 87 83 85 87 86 91 80 75 72 89 77 75
100 98 98 98 99 98 94 92 98 96 96 93 93 92 91 83 82 99 85 83 88 87 86 85 86 92 97 89 72 68 72 78 82
97 99 98 96 95 92 91 93 98 98 100 100 96 95 95 99 96 99 88 87 94 86 84 88 90 94 93 97 87 87 85 82 83
100 99 98 97 94 92 95 97 97 98 98 98 99 99 99 100 100 100 99 95 91 89 92 88 92 91 91 94 95 93 86 88 96
99 98 97 98 99 99 97 95 91 90 92 92 100 100 100 100 97 98 100 99 96 92 97 94 89 88 91 92 94 97 97 98 98
96 97 97 99 99 97 90 88 89 91 94 94 96 100 100 100 100 99 100 99 99 98 100 94 93 98 98 99 99 98 98 98 98
92 94 95 98 96 90 87 85 83 82 82 86 93 96 96 98 100 100 100 100 99 100 100 100 100 99 99 96 97 98 99 99 98
94 94 96 96 94 89 85 82 80 78 75 75 84 86 92 96 99 100 100 100 100 100 98 97 99 100 99 99 100 100 100 99 98
94 95 95 96 92 88 84 80 77 75 76 74 72 72 78 84 95 99 100 99 99 100 100 100 100 100 100 99 98 99 97 96 94
93 94 95 94 91 87 82 79 76 74 73 71 70 67 64 67 74 91 98 100 100 99 99 100 98 98 100 100 98 98 96 90 87
91 91 92 92 89 86 82 78 73 72 73 74 66 71 68 55 56 66 84 97 100 100 100 99 96 96 94 93 92 94 95 90 85
94 91 90 90 89 87 83 78 73 72 70 69 65 67 57 54 54 52 58 73 95 100 100 99 98 96 97 96 96 97 97 96 87
97 95 94 92 90 88 83 78 73 73 69 62 58 58 59 55 52 50 48 53 65 89 98 100 98 98 96 98 98 98 98 95 90

GFSFLT1_925_rhum_366.txt.gz
RH
87 87 91 92 92 88 87 86 83 78 75 75 73 74 76 66 70 77 80 91 95 94 92 89 92 88 95 94 94 93 95 94 93
89 86 90 90 86 85 86 86 78 67 70 73 75 73 68 75 81 84 88 87 95 96 92 92 94 94 96 96 94 93 96 96 96
86 88 89 89 87 88 90 88 81 77 86 84 74 80 77 78 80 82 84 85 94 96 89 87 88 94 96 94 93 94 95 93 94
87 88 89 90 90 92 93 91 84 85 85 81 83 86 82 80 89 86 85 85 95 95 93 93 94 95 94 91 94 93 92 92 90
90 92 92 92 93 93 98 98 83 86 86 83 85 84 87 91 92 93 91 92 95 94 92 94 92 95 92 81 91 95 97 95 90
97 95 94 96 98 99 96 88 84 83 83 80 81 85 90 84 89 90 82 90 95 93 91 92 93 91 91 84 86 94 94 95 91
100 99 96 98 99 97 96 94 91 85 82 82 77 79 81 79 85 92 87 91 96 86 89 91 90 91 93 93 94 94 94 83 82
99 99 97 92 94 91 86 86 93 92 89 88 85 88 80 85 85 89 86 88 94 83 83 86 93 94 95 95 94 92 94 79 66
100 97 94 90 82 84 78 81 84 87 87 88 90 94 89 88 75 78 81 79 76 84 80 84 97 96 95 94 90 90 86 88 88
96 85 86 83 83 83 81 81 79 81 84 82 74 85 90 92 92 88 84 80 81 81 87 89 90 96 95 90 90 91 92 95 96
90 89 87 84 83 83 84 85 86 87 86 87 90 97 100 100 95 100 96 89 89 94 90 99 93 89 97 93 96 97 98 97 98
89 91 87 84 84 84 90 89 88 91 96 100 98 99 99 99 99 99 100 100 96 96 96 99 95 92 91 100 100 98 98 98 98
91 89 85 86 86 90 86 86 88 98 98 99 100 99 100 100 100 100 100 100 100 100 97 98 97 99 100 98 96 97 98 99 100
88 89 89 89 90 90 87 85 94 96 97 98 100 100 100 99 100 100 100 100 100 99 100 100 100 100 99 98 98 99 100 99 98
94 93 94 89 91 88 88 84 92 92 96 95 98 99 100 100 100 100 100 100 100 100 99 100 100 99 99 98 100 100 97 96 95
94 94 91 91 90 86 85 84 91 90 92 90 92 96 98 99 100 100 100 100 100 99 98 100 96 96 96 96 97 96 93 92 92
92 90 94 91 86 84 82 81 89 88 83 80 80 84 84 91 95 98 99 100 100 99 99 98 97 95 92 89 89 90 89 89 89
90 94 95 90 84 83 81 79 86 83 80 77 73 91 91 68 81 97 100 100 100 100 98 94 92 89 87 85 86 86 87 87 86
91 94 93 89 84 82 79 77 82 80 77 79 70 67 68 81 74 65 94 99 99 100 97 94 90 86 86 87 85 85 87 87 84
92 93 92 89 85 81 78 77 79 78 76 74 67 62 65 62 65 80 68 89 97 99 97 94 91 90 89 87 90 92 91 90 87

GFSFLT1_925_rhum_369.txt.gz
RH
91 92 91 91 88 85 81 75 76 82 83 80 81 73 73 73 73 86 86 87 94 96 94 88 88 92 94 94 95 93 92 94 92
92 90 91 88 84 81 77 73 74 77 77 70 68 72 68 76 74 81 89 92 93 96 95 94 95 96 94 94 94 95 95 94 94
88 91 89 85 86 80 73 69 76 81 77 77 76 72 67 76 82 80 89 90 94 96 89 92 94 94 94 94 95 94 95 96 96
89 91 88 87 87 91 80 80 87 82 75 73 82 78 79 83 79 80 89 89 96 95 92 96 95 94 95 92 89 90 91 92 90
92 92 92 92 94 89 85 86 88 85 83 81 81 78 83 89 93 80 91 89 96 94 93 96 94 94 98 88 94 92 91 89 93
96 94 93 94 92 91 79 88 87 84 83 84 84 78 87 83 92 91 92 89 95 94 92 94 94 94 89 98 91 95 90 94 96
97 98 97 97 90 88 88 90 89 85 85 86 79 81 84 83 91 97 85 92 94 91 90 92 94 96 93 91 95 95 95 95 88
100 100 100 99 100 98 94 90 87 87 89 87 85 83 85 86 91 100 95 91 97 92 89 88 91 96 92 96 96 92 94 88 75
99 100 100 98 94 92 92 89 91 89 89 90 89 88 89 88 86 92 94 96 98 94 76 76 76 79 92 96 90 88 87 88 88
98 98 91 88 86 86 88 87 88 88 89 91 89 89 90 86 87 84 83 87 91 80 85 89 98 94 95 91 90 92 98 99 96
94 90 91 86 80 79 79 81 83 81 78 84 87 87 94 96 93 94 91 89 89 88 88 90 89 88 96 97 98 99 97 97 96
88 88 88 85 81 80 79 81 83 84 87 92 97 98 98 99 99 99 93 89 94 97 99 96 93 88 97 100 100 97 97 97 98
85 88 87 85 83 84 84 86 89 96 98 99 99 98 100 98 99 100 100 100 99 100 99 99 96 99 99 99 97 98 98 99 99
86 88 87 84 86 87 87 93 93 98 98 99 100 100 100 100 100 99 99 100 100 99 100 100 100 99 98 97 98 99 99 97 97
88 87 87 85 90 88 89 96 95 94 98 100 99 100 100 100 100 100 100 100 99 100 100 99 100 99 96 97 99 99 97 96 94
89 85 86 88 88 86 89 95 93 96 96 97 98 100 100 100 100 100 100 100 100 96 94 94 95 98 98 96 97 96 93 93 94
87 89 92 92 89 88 90 94 93 96 94 92 92 96 94 99 100 100 100 100 100 97 95 93 91 89 88 88 88 91 90 90 90
92 94 92 90 90 89 87 92 89 91 85 85 78 95 95 86 94 100 100 100 100 99 97 94 90 88 88 87 88 89 88 89 88
95 94 90 91 90 88 85 90 86 81 83 84 73 72 78 90 87 90 100 100 100 97 94 90 87 85 84 85 86 87 88 86 85
93 92 92 92 88 86 83 88 85 80 79 74 68 68 74 75 78 81 84 99 100 99 95 90 87 85 86 85 85 85 88 88 84

GFSFLT1_925_rhum_372.txt.gz
RH
90 91 89 86 74 81 79 81 84 85 88 80 77 74 68 82 82 76 89 92 95 95 95 94 95 94 95 94 92 94 94 95 94
90 90 86 82 74 75 80 84 81 79 84 73 72 72 68 80 82 82 88 94 95 95 96 96 92 94 95 94 94 95 96 94 95
93 93 87 83 80 78 81 81 78 74 75 74 70 72 68 78 87 88 86 92 97 97 97 94 94 95 92 96 96 96 95 93 99
92 91 90 85 80 78 80 82 82 74 75 74 70 72 76 78 86 86 88 89 97 97 96 94 94 95 92 93 91 93 96 97 97
93 91 91 84 80 88 86 86 84 86 84 78 78 74 75 85 93 93 92 94 98 98 94 94 96 93 92 89 88 91 93 94 97
94 91 90 92 99 89 87 85 83 84 86 86 84 81 88 81 98 95 90 93 99 96 95 95 96 81 86 91 90 94 96 96 92
97 97 96 98 99 87 90 87 86 84 88 87 81 78 90 87 98 96 89 91 96 95 92 92 94 95 96 87 92 96 94 95 83
100 100 98 100 96 92 93 90 88 88 90 87 84 85 88 96 99 100 92 88 95 95 94 87 90 95 94 94 91 96 96 92 88
99 98 98 99 95 95 94 91 91 89 87 88 91 89 96 100 100 100 100 93 94 96 97 96 95 96 93 94 92 83 86 88 94
99 99 99 99 97 92 90 91 91 91 90 90 90 88 88 86 92 88 85 91 89 92 97 96 93 90 95 94 95 96 99 100 95
99 98 97 94 94 91 90 89 90 92 92 92 90 90 91 90 88 88 86 88 88 85 93 95 95 95 97 93 95 99 99 94 97
99 96 92 89 90 88 87 86 86 88 89 90 92 99 99 100 96 89 86 86 86 91 91 88 88 92 98 98 99 99 94 94 98
98 92 88 86 87 85 85 84 85 89 90 96 96 97 96 100 100 100 93 92 97 98 99 98 92 98 98 99 98 98 97 99 98
93 91 88 84 81 81 82 87 84 95 99 98 99 100 99 99 99 100 100 99 100 100 100 99 100 98 96 98 98 99 99 97 96
91 90 88 86 83 84 86 88 96 94 97 99 100 100 100 100 100 100 100 100 100 100 99 100 100 98 97 98 99 98 94 91 95
89 89 88 86 83 86 89 94 93 99 99 97 100 100 100 100 100 100 100 100 100 99 100 99 98 99 99 97 98 98 96 95 95
88 88 88 88 86 91 95 93 98 100 96 97 97 99 98 100 100 100 100 100 99 96 95 94 94 95 95 95 94 94 93 92 93
91 89 85 88 86 89 94 90 91 97 92 94 85 98 98 96 100 100 100 100 99 96 94 92 90 88 88 90 91 90 92 91 91
95 90 86 87 90 87 93 91 88 92 92 92 81 80 86 96 97 99 100 100 100 96 92 90 88 87 86 88 89 86 86 89 89
97 92 84 91 91 89 91 93 90 88 91 84 78 81 84 81 91 97 96 100 100 97 92 88 86 85 84 86 86 87 86 86 85

GFSFLT1_925_rhum_375.txt.gz
RH
91 90 86 84 85 82 82 84 88 84 78 74 80 78 75 84 89 93 92 91 94 95 96 93 93 93 93 95 95 96 95 95 96
90 91 84 84 85 80 84 86 88 81 79 76 73 79 79 74 89 93 90 92 96 94 93 94 94 94 92 92 92 95 96 95 99
92 89 84 86 84 84 84 85 87 77 76 75 75 80 76 78 84 92 93 92 94 94 93 94 93 95 96 93 92 94 98 95 90
92 89 92 90 83 83 81 79 84 74 71 71 70 78 84 89 88 91 92 92 96 94 94 95 93 94 94 97 96 96 96 98 97
91 91 91 88 80 84 81 76 76 78 72 77 78 79 87 88 90 93 95 97 94 94 94 95 94 93 89 91 89 93 96 95 96
96 91 90 84 98 96 93 83 81 79 78 76 74 77 88 91 94 94 90 94 95 94 95 95 98 93 89 89 93 93 95 95 93
96 96 89 97 99 91 88 87 88 85 84 85 82 72 92 95 97 96 89 93 97 95 94 91 96 89 88 91 94 98 89 95 83
100 100 100 98 96 89 90 91 92 89 89 86 86 83 93 96 99 100 93 91 95 96 97 96 96 84 90 94 96 88 84 88 86
99 98 98 99 93 92 93 93 93 93 90 83 94 98 100 98 99 98 99 91 93 100 99 97 96 95 92 96 87 75 83 88 91
98 95 98 100 96 93 94 92 93 93 94 96 96 100 99 99 100 99 98 96 88 93 95 94 94 94 93 94 88 96 97 92 91
98 92 100 100 97 96 93 93 92 93 96 97 94 95 98 98 93 93 94 95 91 86 93 94 94 95 96 96 95 97 97 92 92
92 95 98 100 97 93 93 95 94 94 95 94 99 99 100 94 89 89 90 90 88 92 92 92 87 94 98 98 97 97 91 92 92
94 93 97 99 95 92 93 95 95 95 93 98 99 99 98 100 100 95 90 89 93 96 93 86 87 94 96 96 97 92 92 98 99
92 95 98 96 94 91 90 92 88 91 94 95 95 94 94 98 99 100 99 96 100 95 99 94 98 92 94 94 98 97 100 99 99
94 97 94 94 91 88 86 85 89 90 94 98 99 100 100 100 100 100 99 99 100 100 100 100 100 99 97 98 99 99 99 97 96
97 94 92 91 90 86 86 88 91 100 99 95 100 100 100 100 100 100 100 100 100 100 100 100 100 99 99 99 100 98 96 95 95
98 92 90 86 86 86 87 88 99 100 94 97 98 99 99 100 100 100 100 100 100 100 100 99 97 99 99 99 95 96 95 94 95
97 93 91 88 86 86 86 88 90 100 94 91 87 99 99 100 100 100 100 100 100 100 100 98 97 97 96 93 92 90 92 93 92
96 93 92 90 88 87 87 89 87 88 88 92 88 88 91 98 99 100 100 100 100 99 98 95 93 90 89 90 90 89 90 91 91
98 94 94 93 87 86 89 93 90 86 86 89 88 87 87 85 96 99 100 100 99 95 92 90 90 88 85 85 86 88 86 86 93

GFSFLT1_925_rhum_381.txt.gz
RH
86 86 86 83 84 87 75 68 66 67 70 72 76 84 89 90 93 88 86 95 96 95 93 80 92 93 94 95 96 97 99 95 96
86 85 85 80 78 69 68 69 70 72 73 77 84 89 89 94 92 92 91 91 94 95 96 92 92 94 95 96 93 95 97 96 93
84 86 83 81 78 77 79 76 78 88 76 82 88 92 89 90 93 92 90 88 93 95 91 87 91 93 93 95 97 95 86 97 98
86 86 81 81 83 85 82 80 78 77 81 79 82 90 87 94 94 96 90 90 94 95 91 92 90 94 96 97 94 94 84 94 92
87 86 82 81 85 88 82 80 76 77 85 84 77 84 89 92 91 91 88 87 95 96 93 94 96 93 94 95 98 96 73 89 94
92 94 84 86 95 92 84 77 67 76 85 84 87 83 92 93 93 93 88 89 95 94 90 93 96 97 96 96 93 96 96 88 81
90 89 90 97 98 99 93 75 69 68 84 89 89 84 89 92 95 93 84 84 95 94 94 90 89 91 93 95 95 95 90 91 80
94 98 100 100 99 100 83 77 76 73 78 88 87 92 94 98 96 93 88 87 95 93 90 88 88 94 87 92 89 92 89 85 88
100 99 99 98 100 86 82 80 76 74 80 90 99 99 98 97 95 96 92 89 95 98 91 87 88 94 87 79 92 87 86 90 93
98 98 99 97 100 91 88 87 89 92 93 99 97 98 98 96 94 96 96 98 94 96 95 89 89 93 89 91 88 85 88 91 91
94 96 98 98 100 98 94 92 97 100 99 98 100 98 97 96 94 95 99 97 98 94 94 95 92 96 96 86 89 90 92 91 97
93 98 99 98 99 100 98 98 100 99 99 98 94 97 97 95 97 99 97 97 94 91 93 90 91 93 96 92 93 94 93 95 99
95 95 94 98 100 100 100 100 99 99 99 99 99 98 99 100 100 98 95 93 90 91 90 90 84 85 96 96 96 94 95 97 99
93 98 93 97 99 100 100 100 100 100 100 99 99 99 99 99 100 97 92 92 88 89 93 90 87 80 90 96 98 96 97 95 96
100 98 94 97 99 100 100 99 100 100 98 100 98 97 97 96 98 98 98 89 93 98 100 88 87 88 89 90 98 97 98 99 99
100 100 100 100 99 98 100 100 100 100 100 99 100 100 98 95 94 96 98 93 98 100 100 90 93 98 95 96 97 98 99 99 97
99 98 98 99 100 100 100 99 99 100 100 98 100 99 100 100 99 99 99 99 98 100 100 96 99 100 100 99 96 98 99 97 96
98 100 94 94 98 99 99 99 97 100 100 93 85 98 94 100 99 100 99 99 100 100 100 100 98 100 96 98 96 96 95 95 95
99 95 97 92 94 99 99 99 95 100 100 96 91 87 93 87 99 100 99 100 100 100 100 100 100 98 96 94 92 93 88 94 96
100 100 100 97 94 99 99 99 97 93 94 91 96 93 94 92 94 100 100 100 100 100 100 100 100 98 93 92 94 89 86 90 96